CW5532 Weather Reports


time (UTC)temp
C
wind
direction
speed
KPH
gust
KPH
rain 1hr
cm
rain 24hr
cm
rain mn
cm
humidity
%
barometer
mb
20260510063715 10 33 0.0 0.0 0.00 0.99 0.00 84 1011.4
20260510060715 9 255 0.0 1.6 0.00 0.99 0.00 84 1011.5
20260510050715 7 251 0.0 0.0 0.00 0.99 0.00 84 1011.9
20260510043715 7 246 0.0 0.0 0.00 0.99 0.00 84 1011.5
20260510030714 8 219 0.0 0.0 0.00 0.99 0.00 84 1011.6
20260510030214 8 219 0.0 0.0 0.00 0.99 0.00 84 1011.6
20260510023714 8 219 0.0 0.0 0.00 0.99 0.00 84 1011.5
20260510023214 8 219 0.0 0.0 0.00 0.99 0.00 84 1011.6
20260510020715 9 219 0.0 0.0 0.00 0.99 0.00 84 1011.8
20260510013715 10 227 0.0 0.0 0.00 0.99 0.00 84 1011.4
20260510010715 10 236 0.0 0.0 0.00 0.99 0.00 84 1011.4
20260510010215 10 236 0.0 0.0 0.00 0.99 0.00 84 1011.4
20260510003714 10 236 0.0 0.0 0.00 0.99 0.00 84 1011.7
20260510003214 10 236 0.0 0.0 0.00 0.99 0.00 84 1011.7
20260510000715 11 236 0.0 0.0 0.00 0.99 0.00 84 1011.7
20260509233715 12 236 0.0 0.0 0.00 0.99 0.00 84 1011.7
20260509220715 12 236 0.0 0.0 0.00 0.99 0.00 84 1011.8
20260509203714 12 236 0.0 0.0 0.00 0.99 0.99 84 1011.4
20260509200214 12 236 0.0 0.0 0.00 0.99 0.99 84 1010.8
20260509193214 13 236 0.0 0.0 0.00 0.99 0.99 84 1010.5
20260509190714 13 247 0.0 0.0 0.03 0.99 0.99 84 1010.3
20260509190214 13 225 0.0 0.0 0.03 0.99 0.99 84 1010.3
20260509183714 13 61 0.0 0.0 0.03 0.99 0.99 84 1010.0
20260509173713 13 50 0.0 0.0 0.20 0.99 0.99 84 1009.5
20260509173213 13 29 0.0 0.0 0.25 0.99 0.99 84 1009.5
20260509170713 12 70 0.0 0.0 0.43 0.91 0.91 85 1010.1
20260509170214 12 65 0.0 3.2 0.51 0.91 0.91 85 1010.3
20260509160714 13 250 0.0 0.0 0.43 0.48 0.48 84 1011.6
20260509160214 13 250 0.0 16.1 0.38 0.43 0.43 84 1011.7
20260509153714 14 218 3.2 12.9 0.05 0.08 0.08 83 1011.5
20260509153214 14 217 0.0 4.8 0.05 0.05 0.05 84 1011.3
20260509150714 14 89 0.0 0.0 0.05 0.05 0.05 83 1009.6
20260509150214 14 91 0.0 0.0 0.05 0.05 0.05 83 1009.5
20260509140713 16 138 0.0 0.0 0.00 0.00 0.00 79 1010.3
20260509133713 16 217 0.0 0.0 0.00 0.00 0.00 77 1010.7
20260509130213 16 150 0.0 0.0 0.00 0.00 0.00 78 1011.0
20260509123713 16 114 0.0 0.0 0.00 0.00 0.00 77 1010.8
20260509110213 17 116 0.0 0.0 0.00 0.00 0.00 74 1012.0
20260509100713 17 108 0.0 0.0 0.00 0.00 0.00 73 1012.2
20260509090213 16 65 0.0 0.0 0.00 0.00 0.00 78 1011.9
20260509083212 13 103 0.0 0.0 0.00 0.00 0.00 82 1012.2
20260509080712 13 67 0.0 0.0 0.00 0.00 0.00 84 1012.3
20260509080212 13 66 0.0 3.2 0.00 0.00 0.00 84 1012.2
20260509073212 13 80 0.0 1.6 0.00 0.00 0.00 85 1012.3
20260509070212 12 178 0.0 0.0 0.00 0.00 0.00 84 1012.5